TimeCST,TemperatureF,Dew PointF,Humidity,Sea Level PressureIn,VisibilityMPH,Wind Direction,Wind SpeedMPH,Gust SpeedMPH,PrecipitationIn,Events,Conditions,WindDirDegrees,DateUTC
12:53 AM,35.1,32.0,89,30.27,10.0,NNW,4.6,-,N/A,,Clear,330,2013-11-27 06:53:00
1:53 AM,35.1,30.9,85,30.28,10.0,NNW,6.9,-,N/A,,Clear,340,2013-11-27 07:53:00
2:53 AM,36.0,30.9,82,30.30,10.0,NNW,6.9,-,N/A,,Clear,330,2013-11-27 08:53:00
3:53 AM,34.0,28.9,82,30.32,10.0,NNW,5.8,-,N/A,,Clear,330,2013-11-27 09:53:00
4:53 AM,32.0,28.0,85,30.33,10.0,NNW,3.5,-,N/A,,Clear,330,2013-11-27 10:53:00
5:53 AM,32.0,27.0,82,30.36,10.0,NNW,4.6,-,N/A,,Clear,340,2013-11-27 11:53:00
6:53 AM,30.0,26.1,85,30.38,10.0,NNW,4.6,-,N/A,,Clear,340,2013-11-27 12:53:00
7:53 AM,32.0,27.0,82,30.40,10.0,NNW,5.8,-,N/A,,Clear,340,2013-11-27 13:53:00
8:53 AM,37.0,27.0,67,30.42,10.0,North,6.9,-,N/A,,Clear,360,2013-11-27 14:53:00
9:53 AM,39.9,27.0,60,30.43,10.0,North,8.1,-,N/A,,Clear,10,2013-11-27 15:53:00
10:53 AM,42.1,27.0,55,30.42,10.0,Variable,4.6,-,N/A,,Clear,0,2013-11-27 16:53:00
11:53 AM,44.1,27.0,51,30.39,10.0,Variable,4.6,-,N/A,,Clear,0,2013-11-27 17:53:00
12:53 PM,46.0,25.0,44,30.36,10.0,NNW,3.5,-,N/A,,Clear,340,2013-11-27 18:53:00
1:53 PM,48.0,25.0,41,30.35,10.0,North,9.2,-,N/A,,Clear,350,2013-11-27 19:53:00
2:53 PM,48.0,21.9,36,30.35,10.0,NW,6.9,-,N/A,,Clear,310,2013-11-27 20:53:00
3:53 PM,48.0,21.0,34,30.35,10.0,North,5.8,-,N/A,,Clear,350,2013-11-27 21:53:00
4:53 PM,46.0,23.0,40,30.35,10.0,Calm,Calm,-,N/A,,Clear,0,2013-11-27 22:53:00
5:53 PM,37.9,28.9,70,30.35,10.0,Calm,Calm,-,N/A,,Clear,0,2013-11-27 23:53:00
6:53 PM,34.0,28.9,82,30.38,10.0,Calm,Calm,-,N/A,,Clear,0,2013-11-28 00:53:00
7:53 PM,32.0,28.9,88,30.40,10.0,Calm,Calm,-,N/A,,Clear,0,2013-11-28 01:53:00
8:53 PM,32.0,28.0,85,30.42,10.0,Calm,Calm,-,N/A,,Clear,0,2013-11-28 02:53:00
9:53 PM,30.0,27.0,88,30.42,10.0,Calm,Calm,-,N/A,,Clear,0,2013-11-28 03:53:00
10:53 PM,30.0,26.1,85,30.42,10.0,Calm,Calm,-,N/A,,Clear,0,2013-11-28 04:53:00
11:53 PM,28.9,26.1,89,30.41,10.0,Calm,Calm,-,N/A,,Clear,0,2013-11-28 05:53:00